Torna al catalogo

STARLINK-35150

AttivoComunicazioniVLEO
NORAD 65635·PAYLOAD·🇺🇸 United States

Lanciato Sep 18, 2025 da Cape Canaveral Space Force Station

Loading…

Prossimi Passaggi (prossime 24 ore)

TLE

AggiornatoSource: CelesTrak SupGP

Epoca: Sep 14, 2026, 21:36 UTC

1 65635C 25210P   26257.90048611 -.00064691  00000+0 -19109-2 0  2572
2 65635  53.1589 147.7014 0001328  90.6714  42.4712 15.34430020    16

Traccia STARLINK-35150 in tempo reale con AllMySat

Download on the App Store